TimeEST,TemperatureF,Dew PointF,Humidity,Sea Level PressureIn,VisibilityMPH,Wind Direction,Wind SpeedMPH,Gust SpeedMPH,PrecipitationIn,Events,Conditions,WindDirDegrees,DateUTC
12:00 AM,35.6,30.2,81,29.65,9.0,NNE,24.2,31.1,N/A,,Overcast,30,2013-03-03 05:00:00
2:00 AM,37.4,30.2,75,29.65,9.0,NE,24.2,34.5,N/A,,Overcast,40,2013-03-03 07:00:00
5:00 AM,37.4,32.0,81,29.65,9.0,NE,24.2,38.0,N/A,,Overcast,40,2013-03-03 10:00:00
5:01 AM,37.4,32.0,81,29.66,9.0,NE,24.2,38.0,N/A,Rain,Light Rain,40,2013-03-03 10:01:00
5:37 AM,37.4,32.0,81,29.67,9.0,NE,21.9,33.4,N/A,,Overcast,40,2013-03-03 10:37:00
6:00 AM,37.4,32.0,81,29.67,9.0,NE,21.9,29.9,N/A,,Overcast,40,2013-03-03 11:00:00
7:00 AM,39.2,32.0,75,29.68,9.0,NE,21.9,32.2,N/A,,Overcast,50,2013-03-03 12:00:00
9:00 AM,41.0,32.0,70,29.69,9.0,NE,20.7,34.5,N/A,,Overcast,40,2013-03-03 14:00:00
10:00 AM,42.8,33.8,70,29.67,9.0,ENE,31.1,38.0,N/A,,Mostly Cloudy,60,2013-03-03 15:00:00
11:00 AM,44.6,33.8,66,29.66,9.0,NE,31.1,41.4,N/A,,Mostly Cloudy,50,2013-03-03 16:00:00
12:00 PM,44.6,33.8,66,29.66,9.0,NE,24.2,39.1,N/A,,Overcast,50,2013-03-03 17:00:00
12:41 PM,42.8,35.6,76,29.65,9.0,NE,24.2,39.1,N/A,Rain,Light Rain,50,2013-03-03 17:41:00
1:00 PM,42.8,35.6,76,29.64,9.0,NE,28.8,38.0,N/A,Rain,Light Rain,50,2013-03-03 18:00:00
2:00 PM,42.8,35.6,76,29.63,9.0,NE,26.5,41.4,N/A,Rain,Light Rain,40,2013-03-03 19:00:00
3:00 PM,41.0,35.6,81,29.64,9.0,NE,24.2,31.1,N/A,Rain,Light Rain,40,2013-03-03 20:00:00
4:00 PM,41.0,37.4,87,29.63,9.0,NE,21.9,33.4,N/A,Rain,Light Rain,40,2013-03-03 21:00:00
5:00 PM,41.0,37.4,87,29.64,9.0,NE,23.0,34.5,N/A,Rain,Light Rain,40,2013-03-03 22:00:00
6:00 PM,39.2,37.4,93,29.64,9.0,NE,25.3,35.7,N/A,Rain,Light Rain,50,2013-03-03 23:00:00
7:22 PM,41.0,37.4,87,29.65,5.0,NE,24.2,31.1,N/A,Rain,Light Rain,50,2013-03-04 00:22:00
7:25 PM,41.0,37.4,87,29.65,6.0,NE,24.2,31.1,N/A,Rain,Light Rain,50,2013-03-04 00:25:00
8:00 PM,41.0,37.4,87,29.65,9.0,NE,28.8,36.8,N/A,Rain,Light Rain,50,2013-03-04 01:00:00
8:30 PM,39.2,37.4,93,29.66,9.0,ENE,25.3,35.7,N/A,Rain,Light Rain,60,2013-03-04 01:30:00
8:34 PM,39.2,37.4,93,29.66,9.0,NE,24.2,32.2,N/A,Rain,Light Rain,50,2013-03-04 01:34:00
8:53 PM,39.2,37.4,93,29.66,5.0,ENE,25.3,35.7,N/A,Rain,Light Rain,60,2013-03-04 01:53:00
9:00 PM,39.2,37.4,93,29.66,6.0,NE,25.3,32.2,N/A,Rain,Light Rain,50,2013-03-04 02:00:00
9:15 PM,39.2,37.4,93,29.66,8.0,NE,27.6,34.5,N/A,Rain,Light Rain,50,2013-03-04 02:15:00
9:22 PM,39.2,37.4,93,29.66,9.0,NE,23.0,32.2,N/A,Rain,Light Rain,50,2013-03-04 02:22:00
9:23 PM,39.2,37.4,93,29.66,9.0,NE,23.0,32.2,N/A,Rain,Light Rain,50,2013-03-04 02:23:00
9:24 PM,39.2,37.4,93,29.66,9.0,NE,26.5,34.5,N/A,Rain,Light Rain,50,2013-03-04 02:24:00
10:00 PM,39.2,37.4,93,29.67,9.0,NE,27.6,34.5,N/A,Rain,Light Rain,50,2013-03-04 03:00:00
10:54 PM,39.2,37.4,93,29.67,9.0,NE,24.2,34.5,N/A,Rain,Light Rain,50,2013-03-04 03:54:00
11:00 PM,39.2,35.6,87,29.67,9.0,NE,26.5,35.7,N/A,,Overcast,50,2013-03-04 04:00:00
11:06 PM,39.2,35.6,87,29.67,9.0,NE,24.2,32.2,N/A,,Overcast,50,2013-03-04 04:06:00
11:17 PM,39.2,35.6,87,29.67,9.0,NE,26.5,33.4,N/A,Rain,Light Rain,50,2013-03-04 04:17:00
11:30 PM,41.0,35.6,81,29.67,9.0,NE,25.3,33.4,N/A,,Overcast,50,2013-03-04 04:30:00